Regional Weather Roundup
Issued by NWS

Home | Current Version | Previous Version | Graphics & Text | Print | Product List | Glossary On
Versions: 1 2 3 4 5 6 7 8 9 10 11 12 13 14 15 16 17 18 19 20 21 22 23 24 25 26 27
000
ASUS45 KCYS 201410
RWRWY

WYOMING REGIONAL WEATHER ROUNDUP
NATIONAL WEATHER SERVICE CHEYENNE WY
800 AM MDT SUN AUG 20 2017

NOTE:  "FAIR" INDICATES FEW OR NO CLOUDS BELOW 12,000 FEET
WITH NO SIGNIFICANT WEATHER AND/OR OBSTRUCTIONS TO VISIBILITY.

WYZ001-201500-
YELLOWSTONE NATIONAL PARK

CITY           SKY/WX    TMP DP  RH WIND       PRES   REMARKS
LK YELLOWSTONE   N/A     40  35  83 CALM      30.28R
W YELLOWSTONE  NOT AVBL

$$
WYZ002>013-054>058-071-098>099-201500-
NORTHERN WYOMING

CITY           SKY/WX    TMP DP  RH WIND       PRES   REMARKS
JACKSON        FAIR      46  33  60 N6        30.20R
CODY           FAIR      55  42  61 CALM      30.13R
GREYBULL       FAIR      56  40  55 SE3       30.05R
WORLAND        FAIR      58  42  55 CALM      30.07R
SHERIDAN       FAIR      53  43  68 NW5       30.08R
BUFFALO        FAIR      61  38  42 S5        30.11F
GILLETTE       FAIR      61  47  59 CALM      30.10R
HULETT         FAIR      61  45  55 E5        30.12R
NEWCASTLE      FAIR      63  41  45 SW6       30.11R

$$
WYZ014>020-022>026-101>103-201500-
CENTRAL WYOMING

CITY           SKY/WX    TMP DP  RH WIND       PRES   REMARKS
BIG PINEY      FAIR      46  30  53 NE8       30.25R
PINEDALE       FAIR      43  32  65 NW6       30.26S
DUBOIS         FAIR      45  30  57 NW8       30.22R
LANDER           N/A    N/A N/A N/A MISG      30.13R
RIVERTON       FAIR      60  33  36 NW3       30.11R
CASPER         FAIR      59  37  44 W9        30.13S
DOUGLAS        FAIR      60  42  51 CALM      30.15R

$$
WYZ021-027>030-104>119-201500-
SOUTHERN WYOMING

CITY           SKY/WX    TMP DP  RH WIND       PRES   REMARKS
EVANSTON       FAIR      59  37  44 S7        30.24R
FORT BRIDGER   FAIR      64  34  33 CALM      30.25S
ROCK SPRINGS   FAIR      58  35  42 N3        30.22R
RAWLINS        FAIR      57  32  38 CALM      30.23R
SARATOGA       FAIR      59  32  36 CALM      30.26S
LARAMIE        FAIR      56  36  47 S6        30.26R
CHEYENNE       FAIR      64  31  28 VRB7      30.17R
TORRINGTON     FAIR      57  46  66 NW3       30.08R
PINE BLUFFS    FAIR      61  37  41 NW5       30.12R

$$




USA.gov is the U.S. government's official web portal to all federal, state and local government web resources and services.